Regional Weather Roundup
Issued by NWS Kansas City/Pleasant Hill, MO

Home | Current Version | Previous Version | Text Only | Print | Product List | Glossary On
Versions: 1 2 3 4 5 6 7 8 9 10 11 12 13 14 15 16 17 18 19 20 21 22 23 24 25 26 27 28 29 30 31 32 33 34 35 36 37 38 39 40 41 42 43 44 45 46 47 48 49 50
000
ASUS43 KEAX 240910
RWREAX

WEATHER ROUNDUP FOR EASTERN KANSAS AND NORTHWEST MISSOURI
NATIONAL WEATHER SERVICE KANSAS CITY/PLEASANT HILL MO
400 AM CDT THU APR 24 2014

KSZ040-057-103>105-MOZ028-029-037-043-241000-
...KANSAS CITY METROPOLITAN AREA...

CITY           SKY/WX    TMP DP  RH WIND       PRES   REMARKS
K.C. INTL      CLOUDY    68  48  48 S24G32    29.61R
K.C. DOWNTOWN  CLOUDY    69  47  45 S12G29    29.60S
LEES SUMMIT    CLOUDY    66  46  48 S20G38    29.59F
OLATHE - IXD   CLOUDY    66  49  54 S17G28    29.62R
OLATHE - OJC   CLOUDY    65  47  52 S17G29    29.60S
LAWRENCE       CLOUDY    70  54  56 W7G18     29.64R

$$

MOZ001>008-011>017-020>025-030>033-038>040-044>046-053-054-241000-
...NORTHERN AND CENTRAL MISSOURI...

CITY           SKY/WX    TMP DP  RH WIND       PRES   REMARKS
ST. JOSEPH     CLOUDY    68  50  52 S12       29.65R
MOSBY          FAIR      66  46  48 SE13      29.62F
WARRENSBURG    CLOUDY   N/A N/A N/A SE21G29   29.67F
WHITEMAN AFB   MOCLDY    63  37  37 S21G26    29.69F
CLINTON        MOCLDY    64  45  48 S15G25    29.71F
SEDALIA        MOCLDY    63  40  42 SE18G26   29.73F
WARSAW         NOT AVBL
MARSHALL         N/A     64  43  45 SE14      29.72F
CHILLICOTHE      N/A     61  40  45 VRB6      29.68F
MOBERLY        PTCLDY    55  37  50 SE14      29.77F
KIRKSVILLE     PTCLDY    53  37  54 SE15      29.75F

$$

MOZ041-047>049-056>058-063>065-088>090-097-241000-
...EASTERN AND SOUTHERN MISSOURI...

CITY           SKY/WX    TMP DP  RH WIND       PRES   REMARKS
ST. LOUIS INTL MOCLDY    55  33  43 SE13      29.88F
SPIRIT OF STL  MOCLDY    55  32  41 SE7       29.87F
COLUMBIA       MOCLDY    57  37  47 SE13      29.79F
JEFFERSON CITY MOCLDY    58  37  45 SE14      29.80F
MEXICO         PTCLDY    50  37  62 SE10      29.81F
HANNIBAL       PTCLDY    55  28  35 SE8       29.83F
ROLLA          PTCLDY    56  35  45 SE13      29.82F
LEBANON        MOCLDY    57  37  47 SE14      29.81F
OSAGE BEACH    MOCLDY    59  36  41 SE12G20   29.81F
SPRINGFIELD    MOCLDY    61  42  49 SE20G28   29.77F
BRANSON        CLOUDY    57  41  54 SE10      29.84S
NEVADA         CLOUDY    64  46  52 S17G23    29.71S
JOPLIN         CLOUDY    68  48  48 S21G26    29.67S
WEST PLAINS    CLOUDY    54  37  52 SE5       29.89S
MALDEN         MOCLDY    50  43  76 CALM      29.93S

$$

IAZ060-094-KSZ022-034>040-054-083-096-NEZ052-066-093-241000-
...KANSAS...SOUTHEAST NEBRASKA AND IOWA...

CITY           SKY/WX    TMP DP  RH WIND       PRES   REMARKS
TOPEKA         CLOUDY    72  55  55 W8        29.63R
MANHATTAN      CLOUDY    66  50  56 VRB7      29.62R
EMPORIA        CLOUDY    68  56  65 S26G36    29.57S
CHANUTE        CLOUDY    67  54  63 S15       29.65R
WICHITA        MOCLDY    66  58  75 S18G28    29.58R
OMAHA          RAIN      50  45  83 NE7       29.65R
LINCOLN        LGT RAIN  51  48  89 CALM      29.63F FOG
FALLS CITY     LGT RAIN  62  51  67 SE8       29.60S
LAMONI         LGT RAIN  58  40  51 SE13      29.67R
DES MOINES     LGT RAIN  50  41  71 SE15G22   29.69F

$$




USA.gov is the U.S. government's official web portal to all federal, state and local government web resources and services.